KR8N Weather Reports


time (UTC)temp
F
wind
direction
speed
knots
gust
knots
rain 1hr
in
rain 24hr
in
rain mn
in
humidity
%
barometer
mb
20260508111622 36 78 0.0 0.0 0.00 0.00 0.00 97 1019.9
20260508111119 35 91 0.0 0.0 0.00 0.00 0.00 97 1019.5
20260508110617 35 91 0.0 0.0 0.00 0.00 0.00 97 1019.6
20260508110114 35 91 0.0 0.0 0.00 0.00 0.00 97 1019.5
20260508105614 34 91 0.0 0.0 0.00 0.00 0.00 97 1019.6
20260508105111 34 91 0.0 0.0 0.00 0.00 0.00 96 1019.5
20260508104609 34 90 0.0 0.0 0.00 0.00 0.00 96 1019.4
20260508104105 34 90 0.0 0.0 0.00 0.00 0.00 96 1019.6
20260508103602 34 90 0.0 0.0 0.00 0.00 0.00 96 1019.4
20260508103059 34 90 0.0 0.0 0.00 0.00 0.00 96 1019.4
20260508102557 34 90 0.0 0.0 0.00 0.00 0.00 96 1019.2
20260508102054 34 90 0.0 0.0 0.00 0.00 0.00 96 1019.2
20260508101552 34 90 0.0 0.0 0.00 0.00 0.00 96 1019.3
20260508101049 34 90 0.0 0.0 0.00 0.00 0.00 96 1019.3
20260508100547 34 90 0.0 0.0 0.00 0.00 0.00 96 1019.2
20260508100043 34 90 0.0 0.0 0.00 0.00 0.00 96 1019.2
20260508095541 34 90 0.0 0.0 0.00 0.00 0.00 96 1019.1
20260508095037 34 91 0.0 0.0 0.00 0.00 0.00 96 1019.1
20260508094535 34 91 0.0 0.0 0.00 0.00 0.00 96 1019.0
20260508094031 34 91 0.0 0.0 0.00 0.00 0.00 96 1018.8
20260508093528 34 91 0.0 0.0 0.00 0.00 0.00 96 1019.0
20260508093026 34 91 0.0 0.0 0.00 0.00 0.00 96 1019.1
20260508092523 34 91 0.0 0.0 0.00 0.00 0.00 96 1018.8
20260508092022 33 91 0.0 0.0 0.00 0.00 0.00 96 1018.9
20260508091519 33 91 0.0 0.0 0.00 0.00 0.00 95 1018.8
20260508091016 33 91 0.0 0.0 0.00 0.00 0.00 95 1018.9
20260508090514 34 91 0.0 0.0 0.00 0.00 0.00 95 1018.7
20260508090010 34 91 0.0 0.0 0.00 0.00 0.00 95 1018.7
20260508085506 35 91 0.0 0.0 0.00 0.00 0.00 95 1018.6
20260508085003 35 91 0.0 0.0 0.00 0.00 0.00 95 1018.9
20260508084500 34 91 0.0 0.0 0.00 0.00 0.00 95 1018.8
20260508083958 34 91 0.0 0.0 0.00 0.00 0.00 95 1018.7
20260508083455 35 91 0.0 0.0 0.00 0.00 0.00 95 1018.8
20260508082950 34 91 0.0 0.0 0.00 0.00 0.00 95 1018.8
20260508082447 34 91 0.0 0.0 0.00 0.00 0.00 95 1018.8
20260508081945 35 91 0.0 0.0 0.00 0.00 0.00 95 1018.8
20260508081442 35 91 0.0 0.0 0.00 0.00 0.00 94 1018.9
20260508080937 35 91 0.0 0.0 0.00 0.00 0.00 94 1018.8
20260508080436 35 91 0.0 0.0 0.00 0.00 0.00 94 1018.8
20260508075933 35 91 0.0 0.0 0.00 0.00 0.00 94 1018.5
20260508075430 35 91 0.0 0.0 0.00 0.00 0.00 94 1018.5
20260508074927 35 91 0.0 0.0 0.00 0.00 0.00 94 1018.6
20260508074425 35 91 0.0 0.0 0.00 0.00 0.00 94 1018.5
20260508073921 35 91 0.0 0.0 0.00 0.00 0.00 93 1018.6
20260508073419 35 91 0.0 0.0 0.00 0.00 0.00 93 1018.6
20260508072916 35 91 0.0 0.0 0.00 0.00 0.00 92 1018.5
20260508072412 35 91 0.0 0.0 0.00 0.00 0.00 92 1018.5
20260508071909 36 91 0.0 0.0 0.00 0.00 0.00 91 1018.4
20260508071407 36 91 0.0 0.0 0.00 0.00 0.00 90 1018.4
20260508070905 36 91 0.0 0.0 0.00 0.00 0.00 90 1018.4
20260508070403 37 91 0.0 0.0 0.00 0.00 0.00 90 1018.5
20260508065900 37 91 0.0 0.0 0.00 0.00 0.00 89 1018.4
20260508065358 38 92 0.0 0.0 0.00 0.00 0.00 89 1018.5
20260508064856 38 92 0.0 0.0 0.00 0.00 0.00 89 1018.6
20260508064353 38 91 0.0 0.0 0.00 0.00 0.00 88 1018.4
20260508063851 38 88 0.0 0.0 0.00 0.00 0.00 87 1018.6
20260508063348 38 86 0.0 0.0 0.00 0.00 0.00 86 1018.6
20260508062846 38 86 0.9 0.0 0.00 0.00 0.00 85 1018.7
20260508062343 38 85 0.0 0.0 0.00 0.00 0.00 84 1018.6
20260508061840 38 85 0.0 0.0 0.00 0.00 0.00 84 1018.6
20260508061337 38 85 0.0 0.0 0.00 0.00 0.00 84 1018.7
20260508060833 38 85 0.0 0.0 0.00 0.00 0.00 82 1018.6
20260508060331 38 85 0.0 0.0 0.00 0.00 0.00 81 1018.7
20260508055826 38 85 0.0 0.0 0.00 0.00 0.00 81 1018.5
20260508055324 38 85 0.0 0.0 0.00 0.00 0.00 80 1018.7
20260508054820 38 85 0.0 0.0 0.00 0.00 0.00 80 1018.7
20260508054318 39 85 0.0 0.0 0.00 0.00 0.00 78 1018.6
20260508053815 39 85 0.0 0.0 0.00 0.00 0.00 77 1018.5
20260508053312 40 85 0.0 0.0 0.00 0.00 0.00 75 1018.5
20260508052809 40 85 0.0 0.0 0.00 0.00 0.00 75 1018.5
20260508052307 40 85 0.0 0.0 0.00 0.00 0.00 76 1018.5
20260508051802 40 85 0.0 0.0 0.00 0.00 0.00 76 1018.5
20260508051258 40 85 0.0 0.0 0.00 0.00 0.00 76 1018.4
20260508050755 40 85 0.9 0.0 0.00 0.00 0.00 77 1018.6
20260508050252 41 85 0.0 0.0 0.00 0.00 0.00 75 1018.6
20260508045747 41 85 0.0 0.0 0.00 0.00 0.00 74 1018.5
20260508045245 41 85 0.0 0.0 0.00 0.00 0.00 75 1018.6
20260508044743 41 85 0.0 0.0 0.00 0.00 0.00 75 1018.6
20260508044239 42 85 0.0 0.0 0.00 0.00 0.00 70 1018.5
20260508043735 42 85 0.0 0.0 0.00 0.00 0.00 69 1018.6
20260508043233 42 85 0.0 0.0 0.00 0.00 0.00 73 1018.6
20260508042729 43 85 0.0 0.0 0.00 0.00 0.00 68 1018.5
20260508042227 42 85 0.0 0.0 0.00 0.00 0.00 64 1018.5
20260508041723 42 79 0.0 0.0 0.00 0.00 0.00 66 1018.4
20260508041220 43 79 0.0 0.0 0.00 0.00 0.00 67 1018.3
20260508040717 43 79 0.0 0.0 0.00 0.00 0.00 67 1018.4
20260508040214 42 77 0.0 0.0 0.00 0.00 0.00 68 1018.2
20260508035711 42 71 0.0 0.0 0.00 0.01 0.01 74 1018.0
20260508035208 43 75 0.0 0.0 0.00 0.01 0.01 72 1018.3
20260508034705 43 60 0.0 0.0 0.00 0.01 0.01 72 1018.3
20260508034202 43 56 0.0 0.0 0.00 0.01 0.01 66 1018.2
20260508033659 43 88 0.0 0.0 0.00 0.01 0.01 66 1018.3
20260508033158 43 86 0.0 0.0 0.00 0.01 0.01 66 1018.3
20260508032654 44 86 0.0 0.0 0.00 0.01 0.01 63 1018.3
20260508032151 44 86 0.0 0.0 0.00 0.01 0.01 62 1018.2
20260508031648 45 86 0.0 0.0 0.00 0.01 0.01 63 1017.8
20260508031145 45 92 0.0 0.0 0.00 0.01 0.01 61 1018.0
20260508030641 45 92 0.0 0.0 0.00 0.01 0.01 62 1017.8
20260508030139 46 92 0.0 0.0 0.00 0.01 0.01 61 1017.8
20260508025635 46 88 0.0 0.0 0.00 0.01 0.01 59 1017.6
20260508025132 46 70 0.0 0.0 0.00 0.01 0.01 57 1017.6
20260508024628 46 59 0.0 0.0 0.00 0.01 0.01 59 1017.7
20260508024126 46 64 0.0 0.0 0.00 0.01 0.01 59 1017.6
20260508023621 47 67 0.0 0.0 0.00 0.01 0.01 59 1017.7
20260508023119 48 41 0.0 0.0 0.00 0.01 0.01 58 1017.3
20260508022615 47 50 0.0 0.0 0.00 0.01 0.01 60 1017.3
20260508022112 47 57 0.0 0.0 0.00 0.01 0.01 61 1017.4
20260508021608 47 37 0.0 0.0 0.00 0.01 0.01 60 1017.3
20260508021104 46 60 0.9 0.9 0.00 0.01 0.01 61 1017.4
20260508020601 46 70 0.0 0.0 0.00 0.01 0.01 61 1017.2
20260508020059 46 70 0.0 0.0 0.00 0.01 0.01 63 1017.0
20260508015556 47 76 0.0 0.0 0.00 0.01 0.01 64 1017.0
20260508015053 47 76 0.0 0.0 0.00 0.01 0.01 63 1017.2
20260508014549 47 70 0.0 0.0 0.00 0.01 0.01 64 1017.0
20260508014046 48 62 0.0 0.0 0.00 0.01 0.01 61 1017.0
20260508013542 48 52 0.0 0.0 0.00 0.01 0.01 62 1017.0
20260508013039 48 62 0.0 0.0 0.00 0.01 0.01 63 1016.8
20260508012536 48 63 0.0 0.0 0.00 0.01 0.01 63 1016.7
20260508012034 48 63 0.0 0.0 0.00 0.01 0.01 61 1016.7
20260508011532 49 52 0.0 0.0 0.00 0.01 0.01 60 1016.6
20260508011029 50 51 0.0 0.0 0.00 0.01 0.01 59 1016.4
20260508010526 50 51 0.0 0.0 0.00 0.01 0.01 57 1016.4
20260508010023 51 32 0.0 0.0 0.00 0.01 0.01 56 1016.7
20260508005519 51 29 0.0 0.0 0.00 0.01 0.01 53 1016.4
20260508005017 51 301 0.0 0.0 0.00 0.01 0.01 53 1016.3
20260508004513 51 39 0.9 0.9 0.00 0.01 0.01 54 1016.3
20260508004010 52 20 0.0 0.0 0.00 0.01 0.01 55 1016.2
20260508003506 52 335 1.7 1.7 0.00 0.01 0.01 53 1016.2
20260508003004 53 288 1.7 2.6 0.00 0.01 0.01 50 1016.3
20260508002459 53 308 1.7 1.7 0.00 0.01 0.01 50 1016.2
20260508001956 53 298 1.7 1.7 0.00 0.01 0.01 49 1016.2
20260508001452 53 296 1.7 2.6 0.00 0.01 0.01 49 1016.0
20260508000949 53 5 1.7 1.7 0.00 0.01 0.01 49 1015.9
20260508000444 54 276 3.5 5.2 0.00 0.01 0.01 49 1015.8
20260507235942 54 344 1.7 1.7 0.00 0.01 0.01 50 1015.7
20260507235438 54 330 0.9 0.9 0.00 0.01 0.01 50 1015.8
20260507234936 55 278 2.6 2.6 0.00 0.01 0.01 50 1015.7
20260507234433 55 33 1.7 2.6 0.00 0.01 0.01 49 1015.6
20260507233929 55 121 0.9 0.9 0.00 0.01 0.01 49 1015.7
20260507233426 55 271 1.7 1.7 0.00 0.01 0.01 49 1015.7
20260507232924 56 26 0.0 0.0 0.00 0.01 0.01 48 1015.7
20260507232420 56 332 1.7 1.7 0.00 0.01 0.01 49 1015.6
20260507231918 56 350 1.7 1.7 0.00 0.01 0.01 47 1015.6
20260507231414 57 54 0.9 0.9 0.00 0.01 0.01 47 1015.6
20260507230911 58 44 0.9 0.9 0.00 0.01 0.01 49 1015.7
20260507230408 57 314 2.6 2.6 0.00 0.01 0.01 47 1015.7
20260507225908 57 87 0.9 0.9 0.00 0.01 0.01 47 1015.6
20260507225405 57 26 1.7 2.6 0.00 0.01 0.01 47 1015.6
20260507224901 57 21 3.5 3.5 0.00 0.01 0.01 46 1015.4
20260507224357 57 285 5.2 6.1 0.00 0.01 0.01 48 1015.3
20260507223853 57 270 6.1 8.7 0.00 0.01 0.01 47 1015.2
20260507223350 57 300 2.6 2.6 0.00 0.01 0.01 48 1015.4
20260507222847 56 269 3.5 3.5 0.00 0.01 0.01 48 1015.3
20260507222343 57 266 3.5 5.2 0.00 0.01 0.01 48 1015.3
20260507221840 59 305 1.7 2.6 0.00 0.01 0.01 48 1015.1
20260507221337 59 316 1.7 2.6 0.00 0.01 0.01 48 1015.2
20260507220832 59 356 1.7 1.7 0.00 0.01 0.01 48 1015.1
20260507220331 59 341 5.2 7.0 0.00 0.01 0.01 47 1015.1
20260507215827 59 277 3.5 3.5 0.00 0.01 0.01 46 1015.0
20260507215325 59 279 5.2 6.1 0.00 0.01 0.01 44 1014.9
20260507214822 59 292 3.5 5.2 0.00 0.01 0.01 46 1014.9
20260507214320 58 265 7.0 8.7 0.00 0.01 0.01 47 1015.1
20260507213820 58 265 6.1 7.0 0.00 0.01 0.01 48 1015.0
20260507213317 59 343 1.7 1.7 0.00 0.01 0.01 47 1014.9
20260507212814 59 232 1.7 1.7 0.00 0.01 0.01 47 1014.6
20260507212310 58 285 4.3 7.0 0.00 0.01 0.01 49 1014.5
20260507211806 58 292 7.8 8.7 0.00 0.01 0.01 50 1014.5
20260507211303 57 297 4.3 5.2 0.00 0.01 0.01 53 1014.5
20260507210800 57 308 1.7 2.6 0.00 0.01 0.01 55 1014.7
20260507210257 57 290 1.7 1.7 0.00 0.01 0.01 54 1014.6
20260507205753 59 266 4.3 6.1 0.00 0.01 0.01 53 1014.5
20260507205251 59 325 2.6 3.5 0.00 0.01 0.01 50 1014.7
20260507204746 60 200 2.6 2.6 0.00 0.01 0.01 49 1014.4
20260507204245 58 72 0.9 1.7 0.00 0.01 0.01 54 1014.6
20260507203742 58 56 1.7 1.7 0.00 0.01 0.01 52 1014.3
20260507203239 58 282 4.3 3.5 0.00 0.01 0.01 53 1014.3
20260507202735 59 16 2.6 3.5 0.00 0.01 0.01 51 1014.4
20260507202232 59 271 1.7 2.6 0.00 0.01 0.01 52 1014.4
20260507201726 59 56 2.6 3.5 0.00 0.01 0.01 52 1014.5
20260507201224 57 279 2.6 2.6 0.00 0.01 0.01 54 1014.6
20260507200720 57 57 0.9 0.9 0.00 0.01 0.01 58 1014.5
20260507200216 57 47 0.9 0.9 0.00 0.01 0.01 55 1014.7
20260507195713 57 96 0.9 0.9 0.00 0.01 0.01 54 1014.9
20260507195210 57 52 1.7 1.7 0.00 0.01 0.01 53 1014.7
20260507194707 58 308 5.2 6.1 0.00 0.01 0.01 50 1014.7
20260507194203 58 291 5.2 6.1 0.00 0.01 0.01 49 1015.1
20260507193659 58 342 2.6 2.6 0.00 0.01 0.01 52 1015.1
20260507193157 58 280 4.3 5.2 0.00 0.01 0.01 50 1015.0
20260507192652 59 38 1.7 1.7 0.00 0.01 0.01 51 1015.0
20260507192150 58 53 0.9 0.9 0.00 0.01 0.01 53 1015.0
20260507191645 58 265 0.0 0.0 0.00 0.01 0.01 52 1014.7
20260507191142 59 53 0.9 0.9 0.00 0.01 0.01 53 1015.1
20260507190639 57 62 0.0 0.9 0.00 0.01 0.01 53 1015.2
20260507190138 58 259 4.3 5.2 0.00 0.01 0.01 53 1015.3
20260507185636 57 274 2.6 2.6 0.00 0.01 0.01 54 1015.2
20260507185132 58 272 2.6 3.5 0.00 0.01 0.01 54 1015.5
20260507184630 59 299 1.7 1.7 0.00 0.01 0.01 52 1015.4
20260507184128 59 298 1.7 2.6 0.00 0.01 0.01 55 1015.4
20260507183624 58 303 2.6 3.5 0.00 0.01 0.01 52 1015.5
20260507183121 58 304 4.3 5.2 0.00 0.01 0.01 54 1015.4
20260507182617 57 280 0.9 0.9 0.00 0.01 0.01 62 1015.5
20260507182113 56 65 1.7 1.7 0.00 0.01 0.01 56 1015.6
20260507181611 55 34 5.2 7.8 0.00 0.01 0.01 57 1015.6
20260507181107 56 300 5.2 7.0 0.00 0.01 0.01 55 1015.4
20260507180603 56 269 2.6 3.5 0.00 0.01 0.01 54 1015.5
20260507180100 55 29 1.7 1.7 0.00 0.01 0.01 63 1015.4
20260507175556 54 118 0.9 0.9 0.00 0.01 0.01 63 1015.5
20260507175054 54 281 4.3 5.2 0.00 0.01 0.01 58 1015.6
20260507174551 54 35 1.7 2.6 0.00 0.01 0.01 59 1015.7
20260507174049 54 280 2.6 2.6 0.00 0.01 0.01 59 1015.7
20260507173545 54 342 1.7 1.7 0.00 0.01 0.01 60 1015.6
20260507173042 54 59 1.7 1.7 0.00 0.01 0.01 59 1015.7
20260507172538 54 276 6.1 6.1 0.00 0.01 0.01 60 1015.7
20260507172036 53 305 0.9 0.9 0.00 0.01 0.01 62 1015.7
20260507171531 53 274 2.6 3.5 0.00 0.01 0.01 62 1015.8
20260507171028 53 299 3.5 5.2 0.00 0.01 0.01 62 1016.0
20260507170525 53 15 0.9 1.7 0.00 0.01 0.01 62 1015.8
20260507170022 53 8 0.9 1.7 0.00 0.01 0.01 61 1016.0
20260507165518 53 293 4.3 5.2 0.00 0.01 0.01 61 1016.0
20260507165014 54 262 0.9 0.9 0.00 0.01 0.01 60 1016.1
20260507164511 55 77 2.6 3.5 0.00 0.01 0.01 59 1016.0
20260507164008 54 37 0.9 0.9 0.00 0.01 0.01 62 1016.1
20260507163505 55 281 3.5 3.5 0.00 0.01 0.01 58 1016.0
20260507163002 56 339 1.7 1.7 0.00 0.01 0.01 56 1016.2
20260507162457 57 103 0.9 0.9 0.00 0.01 0.01 54 1016.2
20260507161954 56 122 0.9 0.9 0.00 0.01 0.01 57 1016.1
20260507161450 55 98 0.9 0.9 0.00 0.01 0.01 57 1016.1
20260507160948 55 51 1.7 2.6 0.00 0.01 0.01 61 1016.1
20260507160443 55 53 0.0 0.9 0.00 0.01 0.01 60 1016.2
20260507155939 54 43 0.9 0.9 0.00 0.01 0.01 59 1016.4
20260507155436 53 313 2.6 3.5 0.00 0.01 0.01 56 1016.1
20260507154933 53 87 0.9 0.9 0.00 0.01 0.01 59 1016.2
20260507154429 53 18 0.9 1.7 0.00 0.01 0.01 57 1016.1
20260507153927 53 289 3.5 3.5 0.00 0.01 0.01 61 1016.3
20260507153423 53 96 1.7 2.6 0.00 0.01 0.01 60 1016.4
20260507152919 53 72 0.0 0.0 0.00 0.01 0.01 66 1016.2
20260507152416 53 10 0.9 0.9 0.00 0.01 0.01 59 1016.7
20260507151912 52 65 2.6 2.6 0.00 0.01 0.01 62 1016.2
20260507151409 53 294 3.5 3.5 0.00 0.01 0.01 62 1016.3
20260507150906 53 58 0.9 0.9 0.00 0.01 0.01 63 1016.4
20260507150402 52 100 0.9 1.7 0.00 0.01 0.01 62 1016.6
20260507145858 52 46 2.6 2.6 0.00 0.01 0.01 66 1016.3
20260507145354 52 29 0.9 0.9 0.00 0.01 0.01 64 1016.7
20260507144852 51 345 0.0 1.7 0.00 0.01 0.01 67 1016.7
20260507144349 52 91 3.5 3.5 0.00 0.01 0.01 65 1016.6
20260507143845 52 63 2.6 3.5 0.00 0.01 0.01 64 1016.3
20260507143343 52 75 0.9 1.7 0.00 0.01 0.01 69 1016.4
20260507142839 51 81 0.9 0.9 0.00 0.01 0.01 68 1016.6
20260507142335 52 305 0.0 0.0 0.00 0.01 0.01 69 1016.8
20260507141832 51 54 0.0 0.0 0.00 0.01 0.01 75 1016.6
20260507141329 51 75 0.9 1.7 0.00 0.01 0.01 74 1016.3
20260507140825 50 38 0.9 0.9 0.00 0.01 0.01 73 1017.0
20260507140322 51 21 1.7 1.7 0.00 0.01 0.01 72 1017.0
20260507135820 50 18 1.7 1.7 0.00 0.01 0.01 77 1016.8
20260507135317 50 91 0.9 0.9 0.00 0.01 0.01 77 1017.0
20260507134814 50 50 0.0 0.9 0.00 0.01 0.01 79 1016.8
20260507134310 49 70 0.0 0.0 0.00 0.01 0.01 78 1017.0
20260507133805 49 62 0.9 0.9 0.00 0.01 0.01 80 1017.1
20260507133302 48 51 0.0 0.9 0.00 0.01 0.01 82 1017.1
20260507132800 48 81 0.9 0.9 0.00 0.01 0.01 84 1017.1
20260507132256 48 95 0.9 0.9 0.00 0.01 0.01 82 1017.2
20260507131753 48 75 0.0 0.0 0.00 0.01 0.01 85 1017.2
20260507131250 48 100 1.7 1.7 0.00 0.01 0.01 82 1017.1
20260507130747 48 51 0.0 0.9 0.00 0.01 0.01 84 1017.1
20260507130245 48 58 0.0 0.0 0.00 0.01 0.01 84 1017.2
20260507125743 48 53 0.9 0.9 0.00 0.01 0.01 85 1017.2
20260507125241 48 37 0.0 0.0 0.00 0.01 0.01 83 1017.3
20260507124737 47 51 0.0 0.0 0.00 0.01 0.01 86 1017.2
20260507124234 47 37 0.9 0.9 0.00 0.01 0.01 84 1017.2
20260507123732 47 59 0.0 0.9 0.00 0.01 0.01 85 1017.3
20260507123230 47 179 1.7 1.7 0.00 0.01 0.01 84 1017.2
20260507122724 47 39 1.7 1.7 0.00 0.01 0.01 85 1017.1
20260507122221 47 39 0.9 0.0 0.00 0.01 0.01 85 1017.2
20260507121716 47 294 2.6 2.6 0.00 0.01 0.01 86 1017.0
20260507121213 47 56 0.0 0.0 0.00 0.01 0.01 87 1017.1
20260507120709 47 46 0.0 0.0 0.00 0.01 0.01 87 1016.9
20260507120206 46 49 0.0 0.0 0.00 0.01 0.01 88 1016.8
20260507115702 46 49 0.0 0.0 0.00 0.01 0.01 88 1017.0
20260507115158 46 49 0.0 0.0 0.00 0.01 0.01 88 1016.8
20260507114654 46 58 0.9 0.9 0.00 0.01 0.01 89 1017.0
20260507114151 46 50 0.0 0.0 0.00 0.01 0.01 89 1016.8
20260507113649 46 70 0.0 0.0 0.00 0.01 0.01 90 1016.7
20260507113145 46 52 0.0 0.0 0.00 0.01 0.01 90 1016.7
20260507112643 46 70 0.9 0.0 0.00 0.01 0.01 90 1016.6
20260507112140 46 49 0.9 0.9 0.00 0.01 0.01 90 1016.7